Regional Weather Roundup
Issued by NWS

Home | Current Version | Previous Version | Text Only | Print | Product List | Glossary On
Versions: 1 2 3 4 5 6 7 8 9 10 11 12 13 14 15 16 17 18 19 20 21 22 23 24 25 26 27 28 29 30 31 32 33 34 35 36 37 38 39 40 41 42 43 44 45 46 47 48 49 50
000
ASUS43 KBIS 030202
RWRND

NORTH DAKOTA REGIONAL WEATHER ROUNDUP
NATIONAL WEATHER SERVICE BISMARCK ND
900 PM CDT WED SEP 02 2015

NOTE: "FAIR" INDICATES FEW OR NO CLOUDS BELOW 12,000 FEET WITH NO
SIGNIFICANT WEATHER AND/OR OBSTRUCTIONS TO VISIBILITY.


NDZ001>003-009>011-017-030300-
NORTHWEST NORTH DAKOTA

CITY           SKY/WX    TMP DP  RH WIND       PRES   REMARKS
WILLISTON      CLOUDY    78  50  37 CALM      29.63S
MINOT          PTCLDY    79  59  50 SE7       29.69R
MINOT AFB      PTCLDY    75  62  62 S9        29.68R
$$

NDZ018>021-031>035-040>046-030300-
SOUTHWEST NORTH DAKOTA

CITY           SKY/WX    TMP DP  RH WIND       PRES   REMARKS
BISMARCK       CLEAR     73  62  68 SE9       29.73R
DICKINSON      PTCLDY    75  51  43 SE9       29.71R
GARRISON         N/A     77  60  55 SE7       29.71R
HETTINGER ARPT CLEAR     74  55  51 SE3       29.75S
$$

NDZ004>008-012>016-024-026-027-054-030300-
NORTHEAST NORTH DAKOTA

CITY           SKY/WX    TMP DP  RH WIND       PRES   REMARKS
GRAND FORKS    PTCLDY    78  65  63 SE10      29.79R
GRND FRKS AFB  CLEAR     78  65  65 S9        29.80R
DEVILS LAKE    CLEAR     77  64  65 SE12      29.76S
$$

NDZ022-023-025-028>030-036>039-047>053-030300-
SOUTHEAST NORTH DAKOTA

CITY           SKY/WX    TMP DP  RH WIND       PRES   REMARKS
FARGO          CLEAR     79  67  66 SE10      29.81R
JAMESTOWN      CLEAR     78  70  76 SE13      29.77R
$$




USA.gov is the U.S. government's official web portal to all federal, state and local government web resources and services.